STARLINK-32709

Last updated on Wed Jan 29 2025 00:02:04 GMT+0000 (Coordinated Universal Time)

1 62439U 24251H 25028.50002315 -.00197957 00000+0 -50492-2 0 9992 2 62439 53.1598 66.6061 0001647 67.8715 236.7864 15.39733405 5858
UTC large
Height (km)
Speed (km/s)
/
Latitude / Longitude
Inclination (degrees)
Orbital Period (minutes)
Azimuth
Elevation
Range (km)
Doppler Factor

Next 0 passes for location: London (51.5072 / 0.1276)

Sorry there are no passes over London.